Date,TemperatureHighF,TemperatureAvgF,TemperatureLowF,DewpointHighF,DewpointAvgF,DewpointLowF,HumidityHigh,HumidityAvg,HumidityLow,PressureMaxIn,PressureMinIn,WindSpeedMaxMPH,WindSpeedAvgMPH,GustSpeedMaxMPH,PrecipitationSumIn
2013-1-1,0,0,-1,-2,-2,-3,92,92,92,0.00,40.00,0,0,1,0.00
2013-1-2,21,11,4,11,4,-2,97,75,44,0.00,40.00,5,1,8,0.00
2013-1-3,25,12,3,8,2,-2,82,64,36,0.00,40.00,3,1,7,0.00
2013-1-4,33,18,12,10,5,1,70,56,33,0.00,40.00,2,0,2,0.00
2013-1-5,32,20,11,15,11,6,89,68,40,0.00,40.00,3,0,7,0.00
2013-1-6,33,27,18,11,6,3,58,41,29,0.00,40.00,4,2,7,0.00
2013-1-7,34,23,14,25,8,0,91,54,29,0.00,40.00,5,1,14,0.00
2013-1-8,30,25,21,26,23,17,100,92,76,0.00,40.00,3,1,9,0.00
2013-1-9,40,30,20,22,19,12,100,65,40,0.00,40.00,3,2,8,0.00
2013-1-10,30,24,12,25,19,9,100,82,60,0.00,40.00,7,2,17,0.00
2013-1-11,11,7,3,9,3,0,94,87,77,0.00,40.00,6,2,13,0.00
2013-1-12,6,0,-7,3,-3,-11,91,87,78,0.00,40.00,2,1,6,0.00
2013-1-13,0,-6,-12,-4,-9,-15,88,85,81,0.00,40.00,2,0,6,0.00
2013-1-14,0,-4,-8,-2,-7,-12,92,86,77,0.00,40.00,2,1,4,0.00
2013-1-15,13,6,-4,10,4,-6,98,93,86,0.00,40.00,3,1,6,0.00
2013-1-16,31,23,7,17,9,2,100,60,30,0.00,40.00,7,3,17,0.00
2013-1-17,39,23,17,17,13,3,82,66,33,0.00,40.00,2,0,6,0.00
2013-1-18,42,24,16,14,10,5,75,55,29,0.00,40.00,2,0,5,0.00
2013-1-19,41,24,17,13,9,4,68,54,30,0.00,40.00,2,0,5,0.00
2013-1-20,40,22,17,12,6,0,62,51,28,0.00,40.00,2,0,5,0.00
2013-1-21,43,24,17,16,10,3,78,56,28,0.00,40.00,2,0,3,0.00
2013-1-22,49,31,22,15,6,0,50,35,20,0.00,40.00,3,1,5,0.00
2013-1-23,45,38,32,22,12,5,55,35,21,0.00,40.00,5,2,10,0.00
2013-1-24,37,33,30,34,29,18,100,88,49,0.00,40.00,3,1,5,0.00
2013-1-25,35,31,28,33,30,28,100,93,89,0.00,40.00,3,1,5,0.00
2013-1-26,37,33,29,33,31,29,100,94,82,0.00,40.00,2,1,6,0.00
2013-1-27,31,26,19,31,26,14,100,94,87,0.00,40.00,4,2,14,0.00
2013-1-28,18,12,6,17,9,4,100,88,74,0.00,40.00,4,1,7,0.00
2013-1-29,17,13,7,15,10,5,97,89,78,0.00,40.00,6,2,15,0.00
2013-1-30,26,22,15,25,20,12,100,93,86,0.00,40.00,5,2,13,0.00
2013-1-31,29,26,23,24,22,20,93,85,74,0.00,40.00,7,2,12,0.00
2013-2-1,35,25,17,24,19,12,96,80,51,0.00,40.00,5,1,11,0.00
2013-2-2,37,22,13,20,14,10,95,73,34,0.00,40.00,2,0,4,0.00
2013-2-3,37,25,19,15,12,7,73,58,32,0.00,40.00,2,0,4,0.00
2013-2-4,34,24,16,17,13,10,78,65,42,0.00,40.00,2,1,5,0.00
2013-2-5,44,32,23,22,15,10,77,51,28,0.00,40.00,3,1,8,0.00
2013-2-6,32,26,15,21,15,8,85,62,41,0.00,40.00,4,1,11,0.00
2013-2-7,34,23,12,14,7,-8,89,53,26,0.00,40.00,3,2,8,0.00
2013-2-8,29,23,17,25,19,14,100,86,73,0.00,40.00,3,1,7,0.00
2013-2-9,20,16,10,20,16,7,100,97,89,0.00,40.00,4,1,6,0.00
2013-2-10,20,12,6,17,10,4,97,93,85,0.00,40.00,2,0,5,0.00
2013-2-11,19,7,1,14,4,-2,95,88,65,0.00,40.00,2,0,6,0.00
2013-2-12,20,13,2,18,11,0,100,92,78,0.00,40.00,3,1,7,0.00
2013-2-13,29,21,12,24,20,11,100,93,76,0.00,40.00,3,1,12,0.00
2013-2-14,30,22,14,23,17,8,100,81,56,0.00,40.00,5,2,14,0.00
2013-2-15,31,20,11,22,16,10,98,85,63,0.00,40.00,2,1,6,0.00
2013-2-16,42,28,16,19,13,4,89,56,35,0.00,40.00,3,1,6,0.00
2013-2-17,34,25,15,22,11,-2,86,56,33,0.00,40.00,6,3,17,0.00
2013-2-18,25,15,5,14,6,-2,94,71,34,0.00,40.00,4,1,9,0.00
2013-2-19,34,24,17,12,7,-1,63,48,37,0.00,40.00,3,2,7,0.00
2013-2-20,31,24,20,23,19,9,98,82,57,0.00,40.00,4,1,9,0.00
2013-2-21,21,16,8,20,12,4,100,85,72,0.00,40.00,5,2,13,0.00
2013-2-22,20,13,5,13,8,2,94,80,56,0.00,40.00,5,1,10,0.00
2013-2-23,20,15,11,20,12,6,100,91,76,0.00,40.00,7,3,20,0.00
2013-2-24,19,12,5,14,8,2,96,87,76,0.00,40.00,7,2,14,0.00
2013-2-25,27,12,3,17,6,1,93,79,52,0.00,40.00,3,1,6,0.00
2013-2-27,22,14,2,11,6,0,91,71,45,0.00,40.00,3,1,6,0.00
2013-2-28,30,22,10,23,12,4,82,65,50,0.00,40.00,4,1,11,0.00
2013-3-1,38,30,23,30,26,21,99,87,71,0.00,40.00,4,1,9,0.00
2013-3-2,49,34,20,27,19,11,98,58,32,0.00,40.00,3,1,7,0.00
2013-3-3,37,32,29,33,30,19,100,90,51,0.00,40.00,3,1,7,0.00
2013-3-4,29,20,10,29,12,3,100,74,43,0.00,40.00,6,2,11,0.00
2013-3-5,41,26,10,14,7,-1,76,47,21,0.00,40.00,6,2,11,0.00
2013-3-6,42,33,25,30,19,13,100,57,44,0.00,40.00,4,2,10,0.00
2013-3-7,39,31,25,29,25,13,100,71,36,0.00,40.00,3,1,8,0.00
2013-3-8,35,30,27,30,28,27,100,92,71,0.00,40.00,2,1,5,0.00
2013-3-9,32,27,19,28,24,13,100,73,70,0.00,40.00,7,3,13,0.00
2013-3-10,38,26,16,20,14,10,88,61,37,0.00,40.00,8,2,12,0.00
2013-3-11,35,31,22,28,20,9,84,65,42,0.00,40.00,6,2,13,0.00
2013-3-12,42,34,28,31,28,25,98,81,61,0.00,40.00,3,1,9,0.00
2013-3-13,50,38,29,32,27,24,90,67,39,0.00,40.00,3,1,5,0.00
2013-3-14,58,44,36,28,24,20,63,47,23,0.00,40.00,3,2,6,0.00
2013-3-15,53,44,36,29,24,18,72,46,25,0.00,40.00,4,1,8,0.00
2013-3-16,43,37,30,26,20,7,73,52,26,0.00,40.00,5,2,13,0.00
2013-3-17,37,28,23,30,20,10,100,70,45,0.00,40.00,5,3,15,0.00
2013-3-18,33,26,20,20,16,11,98,66,42,0.00,40.00,5,2,11,0.00
2013-3-19,41,29,16,17,0,-20,67,32,11,0.00,40.00,3,1,6,0.00
2013-3-20,35,32,28,35,24,4,100,71,32,0.00,40.00,4,2,8,0.00
2013-3-21,35,24,12,32,17,4,100,73,41,0.00,40.00,6,2,21,0.00
2013-3-22,18,14,11,16,11,6,97,87,61,0.00,40.00,5,1,14,0.00
2013-3-23,20,12,5,15,8,2,96,82,60,0.00,40.00,7,2,12,0.00
2013-3-24,24,12,4,16,8,0,94,83,58,0.00,40.00,3,1,6,0.00
2013-3-25,36,22,5,24,13,3,94,70,46,0.00,40.00,3,1,8,0.00
2013-3-26,44,33,25,29,22,17,97,64,35,0.00,40.00,5,2,14,0.00
2013-3-27,49,36,25,25,23,20,88,62,32,0.00,40.00,3,1,7,0.00
2013-3-28,51,40,32,28,24,20,75,53,33,0.00,40.00,3,1,10,0.00
2013-3-29,49,40,32,33,29,25,94,67,43,0.00,40.00,6,2,12,0.00
2013-3-30,48,39,31,30,26,-100,84,63,35,0.00,40.00,5,1,11,0.00
2013-3-31,53,40,29,29,22,7,81,55,17,0.00,40.00,8,1,11,0.00
2013-4-1,41,35,32,36,33,29,100,94,62,0.00,40.00,3,1,8,0.00
2013-4-2,41,34,30,34,32,30,100,88,70,0.00,40.00,6,2,13,0.00
2013-4-3,50,38,28,35,29,21,100,73,33,0.00,40.00,3,1,7,0.00
2013-4-4,52,43,34,31,28,25,78,56,37,0.00,40.00,3,2,9,0.00
2013-4-5,46,39,33,37,32,27,100,79,48,0.00,40.00,5,2,14,0.00
2013-4-6,42,37,30,35,31,25,97,79,51,0.00,40.00,6,2,14,0.00
2013-4-7,43,37,29,34,28,18,98,73,39,0.00,40.00,5,1,11,0.00
2013-4-8,41,31,18,32,28,17,100,85,42,0.00,40.00,6,2,17,0.00
2013-4-9,18,14,10,18,14,10,100,98,85,0.00,40.00,5,3,13,0.00
2013-4-10,36,27,15,30,20,12,91,76,59,0.00,40.00,5,2,13,0.00
2013-4-11,39,33,29,33,30,25,100,88,56,0.00,40.00,3,1,6,0.00
2013-4-12,47,34,24,28,24,17,94,68,39,0.00,40.00,3,1,6,0.00
2013-4-13,41,34,25,34,26,15,100,76,43,0.00,40.00,4,2,14,0.00
2013-4-14,32,24,16,20,6,0,95,50,27,0.00,40.00,5,2,12,0.00
2013-4-15,32,26,21,27,23,18,100,91,57,0.00,40.00,4,1,8,0.00
2013-4-16,24,21,15,23,20,11,100,95,84,0.00,40.00,3,1,7,0.00
2013-4-17,26,17,8,18,12,7,98,81,54,0.00,40.00,5,2,11,0.00
2013-4-18,31,22,15,11,5,-4,71,48,34,0.00,40.00,6,3,15,0.00
2013-4-19,38,30,19,31,22,11,100,74,58,0.00,40.00,5,2,12,0.00
2013-4-20,38,33,29,33,30,26,100,89,70,0.00,40.00,6,1,12,0.00
2013-4-21,45,35,25,28,24,19,90,65,43,0.00,40.00,5,1,11,0.00
2013-4-22,38,32,24,30,24,13,97,72,46,0.00,40.00,5,2,11,0.00
2013-4-23,37,26,15,21,11,-12,100,63,13,0.00,40.00,5,2,10,0.00
2013-4-24,44,31,20,17,9,3,60,41,21,0.00,40.00,3,1,8,0.00
2013-4-25,51,37,26,20,14,6,62,41,25,0.00,40.00,7,2,12,0.00
2013-4-26,52,41,28,21,17,13,61,40,25,0.00,40.00,4,1,9,0.00
2013-4-27,55,44,32,29,22,13,75,43,23,0.00,40.00,5,1,11,0.00
2013-4-28,58,49,40,30,26,22,63,43,29,0.00,40.00,5,2,12,0.00
2013-4-29,56,46,36,31,26,20,76,48,33,0.00,40.00,6,2,14,0.00
2013-4-30,45,38,27,32,20,2,79,48,29,0.00,40.00,6,2,13,0.00
2013-5-1,32,26,20,22,12,2,88,56,34,0.00,40.00,6,2,14,0.00
2013-5-2,47,33,21,23,12,4,73,45,19,0.00,40.00,4,1,9,0.00
2013-5-3,56,41,30,26,17,10,67,43,18,0.00,40.00,5,1,15,0.00
2013-5-4,53,41,30,30,21,16,78,47,25,0.00,40.00,3,1,7,0.00
2013-5-5,56,44,32,33,28,23,89,58,32,0.00,40.00,3,1,7,0.00
2013-5-6,45,41,39,31,30,28,71,64,55,0.00,40.00,2,1,4,0.00
2013-5-13,69,64,51,35,32,30,51,31,23,0.00,40.00,4,2,11,0.00
2013-5-14,68,58,46,38,32,26,67,40,22,0.00,40.00,5,1,10,0.00
2013-5-15,66,55,42,40,34,27,79,48,24,0.00,40.00,9,2,15,0.00
2013-5-16,63,49,43,40,20,-100,81,55,31,0.00,40.00,7,2,17,0.00
2013-5-17,52,44,39,41,33,-100,98,77,45,0.00,40.00,5,1,13,0.00
2013-5-18,46,39,35,38,35,30,100,88,57,0.00,40.00,5,1,14,0.00
2013-5-19,46,38,32,37,33,31,100,84,56,0.00,40.00,7,2,14,0.00
2013-5-20,48,40,35,41,37,33,100,88,70,0.00,40.00,5,2,10,0.00
2013-5-21,57,46,35,38,32,23,99,62,30,0.00,40.00,4,1,11,0.00
2013-5-22,65,53,41,36,28,21,67,40,22,0.00,40.00,5,2,13,0.00
2013-5-23,61,47,32,34,29,22,95,56,26,0.00,40.00,7,2,13,0.00
2013-5-24,59,46,31,33,20,9,74,39,15,0.00,40.00,6,2,14,0.00
2013-5-25,64,54,42,27,23,17,52,31,21,0.00,40.00,7,2,21,0.00
2013-5-26,64,55,46,28,20,15,41,26,18,0.00,40.00,4,2,12,0.00
2013-5-27,59,50,44,34,30,26,62,46,30,0.00,40.00,6,2,11,0.00
2013-5-28,49,42,35,40,34,25,100,76,43,0.00,40.00,6,2,12,0.00
2013-5-29,46,39,33,36,33,28,100,81,52,0.00,40.00,5,2,12,0.00
2013-5-30,48,41,32,35,30,27,100,67,45,0.00,40.00,6,2,17,0.00
2013-5-31,52,43,34,31,22,12,81,46,25,0.00,40.00,7,3,14,0.00
2013-6-1,63,48,32,38,25,17,68,42,24,0.00,40.00,5,1,9,0.00
2013-6-2,72,59,47,31,25,20,42,28,17,0.00,40.00,7,2,16,0.00
2013-6-3,64,55,42,36,20,6,51,28,12,0.00,40.00,7,2,15,0.00
2013-6-4,63,53,40,33,27,19,64,38,25,0.00,40.00,6,2,15,0.00
2013-6-5,66,52,38,35,32,25,80,50,26,0.00,40.00,4,1,12,0.00
2013-6-6,68,56,43,37,32,25,73,44,21,0.00,40.00,6,2,12,0.00
2013-6-7,69,59,47,42,36,32,69,45,29,0.00,40.00,5,1,15,0.00
2013-6-8,70,61,53,42,33,23,63,36,22,0.00,40.00,5,2,12,0.00
2013-6-9,79,64,50,41,35,28,53,34,19,0.00,40.00,4,2,8,0.00
2013-6-10,77,69,60,38,29,18,42,24,13,0.00,40.00,6,2,15,0.00
2013-6-11,64,62,61,26,25,22,26,24,20,0.00,40.00,2,1,3,0.00
2013-6-17,75,68,52,28,22,15,32,18,11,0.00,40.00,7,2,16,0.00
2013-6-18,75,64,50,28,22,11,33,20,14,0.00,40.00,3,2,9,0.00
2013-6-19,65,58,40,32,23,16,46,27,18,0.00,40.00,5,2,17,0.00
2013-6-20,63,43,32,32,25,19,72,52,24,0.00,40.00,4,1,7,0.00
2013-6-22,63,54,43,37,32,26,65,45,25,0.00,40.00,5,2,14,0.00
2013-6-23,69,56,40,35,29,22,60,37,23,0.00,40.00,4,1,11,0.00
2013-6-24,66,58,47,45,34,25,92,42,28,0.00,40.00,4,2,11,0.00
2013-6-25,68,54,42,47,43,39,97,70,39,0.00,40.00,3,1,12,0.00
2013-6-26,77,66,57,52,44,39,67,46,29,0.00,40.00,5,2,10,0.00
2013-6-27,83,69,55,52,45,39,67,44,28,0.00,40.00,4,1,8,0.00
2013-6-28,84,76,57,48,42,36,68,32,21,0.00,40.00,4,1,12,0.00
2013-6-29,83,71,56,49,41,34,61,35,20,0.00,40.00,4,1,8,0.00
2013-6-30,82,69,56,53,43,35,69,41,19,0.00,40.00,4,1,10,0.00
2013-7-1,83,71,58,48,40,33,51,34,17,0.00,40.00,5,1,9,0.00
2013-7-2,82,69,57,50,42,35,53,39,19,0.00,40.00,6,1,12,0.00
2013-7-3,81,69,56,50,46,37,64,44,31,0.00,40.00,4,1,7,0.00
2013-7-4,73,63,52,60,54,48,100,74,42,0.00,40.00,4,1,9,0.00
2013-7-5,75,61,52,59,54,51,100,80,48,0.00,40.00,7,2,18,0.00
2013-7-6,73,58,51,54,50,45,100,77,45,0.00,40.00,5,2,10,0.00
2013-7-7,73,60,52,57,50,42,94,71,41,0.00,40.00,5,2,10,0.00
2013-7-8,73,62,54,53,46,-100,81,60,37,0.00,40.00,3,2,8,0.00
2013-7-9,79,69,59,48,39,33,50,34,21,0.00,40.00,6,2,12,0.00
2013-7-10,81,66,54,45,31,-100,46,31,17,0.00,40.00,4,1,8,0.00
2013-7-11,74,64,54,52,43,25,94,50,19,0.00,40.00,4,1,13,0.00
2013-7-12,66,57,52,58,54,51,100,90,71,0.00,40.00,3,1,5,0.00
2013-7-13,72,61,53,59,54,50,96,78,52,0.00,40.00,6,2,11,0.00
2013-7-14,77,62,51,59,50,42,95,67,30,0.00,40.00,2,1,4,0.00
2013-7-15,78,64,53,54,49,45,82,61,33,0.00,40.00,2,1,5,0.00
2013-7-16,76,64,54,57,54,50,100,72,49,0.00,40.00,3,1,7,0.00
2013-7-17,76,63,55,63,56,51,99,79,51,0.00,40.00,4,2,8,0.00
2013-7-18,79,68,55,58,51,45,85,57,31,0.00,40.00,4,2,9,0.00
2013-7-19,80,67,55,51,41,31,69,43,17,0.00,40.00,4,1,9,0.00
2013-7-20,80,67,55,41,33,-100,49,31,19,0.00,40.00,3,1,9,0.00
2013-7-21,80,69,56,46,36,27,45,32,15,0.00,40.00,4,1,8,0.00
2013-7-22,81,70,56,48,36,25,53,30,14,0.00,40.00,5,1,11,0.00
2013-7-23,81,70,55,44,34,27,48,28,17,0.00,40.00,3,1,8,0.00
2013-7-24,71,65,57,52,46,28,74,51,29,0.00,40.00,3,1,6,0.00
2013-7-25,77,67,55,52,45,40,68,47,28,0.00,40.00,4,1,12,0.00
2013-7-26,79,66,54,51,40,33,66,42,20,0.00,40.00,4,1,9,0.00
2013-7-27,66,61,53,56,49,33,94,67,33,0.00,40.00,4,1,7,0.00
2013-7-28,67,56,48,57,50,45,98,81,46,0.00,40.00,4,1,9,0.00
2013-7-29,71,59,51,53,48,44,87,69,40,0.00,40.00,4,2,9,0.00
2013-7-30,75,63,53,49,44,36,76,51,27,0.00,40.00,4,2,10,0.00
2013-7-31,77,68,58,47,39,32,51,36,21,0.00,40.00,5,2,15,0.00
2013-8-1,75,65,55,56,48,38,85,56,38,0.00,40.00,4,2,11,0.00
2013-8-2,76,63,49,53,39,26,87,48,18,0.00,40.00,5,1,13,0.00
2013-8-3,77,64,53,38,34,29,47,33,18,0.00,40.00,5,1,16,0.00
2013-8-4,77,67,56,41,37,32,46,34,25,0.00,40.00,4,1,10,0.00
2013-8-5,75,66,57,47,40,36,52,38,26,0.00,40.00,5,2,11,0.00
2013-8-6,77,66,57,45,38,28,49,36,17,0.00,40.00,5,2,12,0.00
2013-8-7,75,62,53,47,39,31,71,43,26,0.00,40.00,3,1,16,0.00
2013-8-8,70,59,51,51,41,34,97,54,30,0.00,40.00,4,1,9,0.00
2013-8-9,71,58,48,46,39,34,75,52,26,0.00,40.00,5,2,12,0.00
2013-8-10,74,62,53,44,39,31,58,45,23,0.00,40.00,4,2,12,0.00
2013-8-11,75,62,53,51,40,32,65,46,24,0.00,40.00,4,2,7,0.00
2013-8-12,67,60,51,44,40,32,71,48,34,0.00,40.00,4,1,7,0.00
2013-8-13,74,60,52,46,36,-100,68,45,23,0.00,40.00,4,2,9,0.00
2013-8-14,79,65,51,42,33,-100,58,36,14,0.00,40.00,6,2,11,0.00
2013-8-15,79,60,55,39,16,-100,43,26,14,0.00,40.00,3,2,7,0.00
2013-8-16,79,66,56,42,30,-100,43,27,17,0.00,40.00,4,2,14,0.00
2013-8-17,76,63,52,56,42,-100,97,51,31,0.00,40.00,4,2,13,0.00
2013-8-18,76,64,53,53,48,42,79,56,34,0.00,40.00,4,1,7,0.00
2013-8-19,79,59,55,59,39,-100,96,61,27,0.00,40.00,3,1,9,0.00
2013-8-20,70,60,53,62,50,-100,98,72,49,0.00,40.00,4,1,9,0.00
2013-8-21,74,62,52,54,50,44,90,66,35,0.00,40.00,3,1,6,0.00
2013-8-22,70,60,53,55,50,45,100,72,47,0.00,40.00,7,1,14,0.00
2013-8-23,60,54,51,55,52,48,100,92,72,0.00,40.00,3,1,8,0.00
2013-8-24,69,56,47,55,48,-100,100,79,42,0.00,40.00,4,2,10,0.00
2013-8-25,66,57,50,53,49,46,88,75,53,0.00,40.00,5,2,7,0.00
2013-8-26,59,55,52,55,52,48,95,88,79,0.00,40.00,2,1,6,0.00
2013-8-27,63,56,53,56,52,50,95,89,77,0.00,40.00,3,1,6,0.00
2013-8-28,74,68,62,57,54,49,79,60,42,0.00,40.00,2,2,7,0.00
2013-8-29,74,66,58,60,52,49,92,61,44,0.00,40.00,4,1,8,0.00
2013-8-30,74,62,56,63,52,47,95,70,44,0.00,40.00,4,1,8,0.00
2013-8-31,73,61,54,57,49,-100,95,67,35,0.00,40.00,3,1,7,0.00
2013-9-1,68,60,55,57,53,50,98,78,61,0.00,40.00,5,1,8,0.00
2013-9-2,71,61,56,58,55,48,100,83,54,0.00,40.00,4,1,8,0.00
2013-9-3,74,62,51,56,52,48,96,72,44,0.00,40.00,4,1,8,0.00
2013-9-4,76,63,53,55,51,47,89,68,41,0.00,40.00,3,1,5,0.00
2013-9-5,76,64,55,53,50,46,86,63,35,0.00,40.00,5,1,13,0.00
2013-9-6,76,65,55,52,47,39,82,54,26,0.00,40.00,4,1,9,0.00
2013-9-7,71,57,50,54,48,-100,100,76,43,0.00,40.00,2,1,7,0.00
2013-9-8,55,50,46,54,50,45,100,98,89,0.00,40.00,3,1,6,0.00
2013-9-9,62,53,46,53,48,42,97,82,48,0.00,40.00,2,1,5,0.00
2013-9-10,60,53,47,54,49,45,95,87,72,0.00,40.00,4,0,6,0.00
2013-9-11,62,54,49,56,52,49,100,93,70,0.00,40.00,4,1,9,0.00
2013-9-12,61,51,46,53,49,46,100,93,71,0.00,40.00,3,1,7,0.00
2013-9-13,56,51,48,55,51,48,100,99,89,0.00,40.00,3,1,6,0.00
2013-9-16,70,60,51,54,49,44,91,71,40,0.00,40.00,3,2,8,0.00
2013-9-17,61,54,49,54,50,48,99,86,70,0.00,40.00,3,1,6,0.00
2013-9-18,43,40,36,24,19,16,54,44,37,0.00,40.00,1,0,4,0.00
2013-9-19,56,42,32,38,31,24,93,68,42,0.00,40.00,2,1,6,0.00
2013-9-20,67,52,38,39,32,24,78,49,27,0.00,40.00,4,2,7,0.00
2013-9-21,67,55,46,37,32,-100,66,44,31,0.00,40.00,3,1,9,0.00
2013-9-22,56,50,44,40,36,33,77,59,44,0.00,40.00,4,2,11,0.00
2013-9-23,56,44,38,37,34,30,81,69,44,0.00,40.00,5,2,10,0.00
2013-9-24,62,51,39,34,28,18,78,44,20,0.00,40.00,4,2,9,0.00
2013-9-25,54,42,30,38,30,26,100,62,34,0.00,40.00,5,2,12,0.00
2013-9-26,36,32,29,35,32,29,100,77,94,0.00,40.00,4,0,8,0.00
2013-9-27,34,30,26,31,28,25,100,87,78,0.00,40.00,3,1,12,0.00
2013-9-28,49,36,26,36,25,-100,99,72,33,0.00,40.00,3,1,7,0.00
2013-9-29,57,48,38,32,25,17,56,41,30,0.00,40.00,4,2,9,0.00
2013-9-30,61,52,45,34,28,23,64,39,33,0.00,40.00,5,2,10,0.00
2013-10-1,56,50,47,30,28,26,49,42,35,0.00,40.00,2,1,4,0.00
2013-10-2,60,48,38,40,33,27,100,59,35,0.00,40.00,3,1,9,0.00
2013-10-3,44,32,25,41,30,22,100,90,71,0.00,40.00,5,2,11,0.00
2013-10-4,33,26,21,27,24,21,100,92,77,0.00,40.00,3,1,7,0.00
2013-10-5,42,32,27,31,25,22,97,78,53,0.00,40.00,5,2,11,0.00
2013-10-6,57,40,28,37,30,24,92,71,44,0.00,40.00,2,1,4,0.00
2013-10-7,63,51,41,31,24,18,68,35,23,0.00,40.00,4,2,9,0.00
2013-10-8,53,47,38,26,21,18,56,36,27,0.00,40.00,5,2,15,0.00
2013-10-9,51,42,33,34,27,22,86,58,40,0.00,40.00,3,1,9,0.00
2013-10-10,40,35,32,37,34,31,100,95,84,0.00,40.00,3,1,8,0.00
2013-10-11,42,33,27,33,27,24,100,81,52,0.00,40.00,5,1,15,0.00
2013-10-12,47,37,30,36,26,-100,100,66,42,0.00,40.00,3,1,9,0.00
2013-10-13,43,36,33,37,34,32,100,92,72,0.00,40.00,2,1,6,0.00
2013-10-14,35,31,28,33,30,25,100,90,76,0.00,40.00,4,1,9,0.00
2013-10-15,33,28,23,28,25,21,100,88,68,0.00,40.00,4,1,7,0.00
2013-10-16,38,25,19,27,22,19,99,88,59,0.00,40.00,4,0,9,0.00
2013-10-17,42,37,31,26,23,19,72,58,44,0.00,40.00,5,2,13,0.00
2013-10-18,42,33,28,27,23,15,80,66,46,0.00,40.00,6,2,15,0.00
2013-10-19,49,35,26,27,17,-100,71,52,28,0.00,40.00,4,1,8,0.00
2013-10-20,48,40,32,28,21,17,73,47,34,0.00,40.00,6,2,12,0.00
2013-10-21,49,37,27,28,25,22,84,63,39,0.00,40.00,6,1,9,0.00
2013-10-22,55,41,30,29,25,19,83,56,31,0.00,40.00,2,1,5,0.00
2013-10-23,59,45,32,29,25,19,82,50,22,0.00,40.00,2,1,6,0.00
2013-10-24,57,45,38,30,24,15,64,44,27,0.00,40.00,2,1,6,0.00
2013-10-25,55,43,35,29,25,22,66,49,29,0.00,40.00,4,1,11,0.00
2013-10-26,54,40,32,30,23,-100,81,55,28,0.00,40.00,2,1,6,0.00
2013-10-27,53,43,35,32,23,19,69,45,29,0.00,40.00,3,1,9,0.00
2013-10-28,45,37,29,35,29,-100,100,78,43,0.00,40.00,4,1,12,0.00
2013-10-29,35,28,22,30,27,22,100,96,76,0.00,40.00,3,0,4,0.00
2013-10-30,32,26,20,28,25,20,100,95,78,0.00,40.00,3,1,7,0.00
2013-10-31,37,30,26,31,28,25,100,90,74,0.00,40.00,4,1,11,0.00
2013-11-1,44,34,29,33,30,25,100,86,63,0.00,40.00,3,2,15,0.00
2013-11-2,50,39,28,28,19,-100,93,48,26,0.00,40.00,5,2,12,0.00
2013-11-3,43,26,14,27,18,10,99,75,37,0.00,40.00,7,2,16,0.00
2013-11-4,22,18,10,21,15,8,99,89,73,0.00,40.00,3,1,6,0.00
2013-11-5,25,17,12,19,14,10,99,90,73,0.00,40.00,3,1,6,0.00
2013-11-6,35,28,16,26,23,10,96,81,64,0.00,40.00,3,1,8,0.00
2013-11-7,46,37,27,34,25,19,89,64,37,0.00,40.00,3,2,9,0.00
2013-11-8,45,38,32,25,22,19,71,53,40,0.00,40.00,6,2,11,0.00
2013-11-9,51,38,33,27,21,-100,64,51,32,0.00,40.00,3,1,6,0.00
2013-11-10,52,38,32,24,21,19,63,51,31,0.00,40.00,2,1,4,0.00
2013-11-11,53,40,32,24,22,20,67,49,29,0.00,40.00,3,1,5,0.00
2013-11-12,58,42,33,25,21,18,62,43,26,0.00,40.00,2,1,4,0.00
2013-11-13,50,42,34,29,22,16,82,46,31,0.00,40.00,4,1,10,0.00
2013-11-14,41,33,23,29,19,7,96,60,25,0.00,40.00,3,1,9,0.00
2013-11-15,36,28,18,30,23,15,100,83,42,0.00,40.00,3,1,7,0.00
2013-11-16,27,24,18,27,21,-100,100,93,78,0.00,40.00,4,2,13,0.00
2013-11-17,34,27,22,28,24,21,100,88,65,0.00,40.00,3,1,6,0.00
2013-11-18,41,33,26,31,26,19,97,78,44,0.00,40.00,3,2,8,0.00
2013-11-19,37,34,31,35,30,24,100,85,61,0.00,40.00,3,1,9,0.00
2013-11-20,36,32,29,34,31,29,100,88,90,0.00,40.00,2,1,5,0.00
2013-11-21,32,23,13,32,23,13,100,88,100,0.00,40.00,2,0,7,0.00
2013-11-22,27,16,9,22,14,7,100,91,62,0.00,40.00,2,0,3,0.00
2013-11-23,34,22,13,23,12,-100,96,68,36,0.00,40.00,4,1,8,0.00
2013-11-24,32,26,20,29,22,7,100,87,41,0.00,40.00,3,0,8,0.00
2013-11-25,37,26,18,23,16,8,85,67,40,0.00,40.00,7,1,12,0.00
2013-11-26,44,29,23,23,19,17,84,68,37,0.00,40.00,3,1,7,0.00
2013-11-27,42,33,28,22,18,12,69,56,36,0.00,40.00,4,1,6,0.00
2013-11-28,44,35,30,23,18,11,71,50,32,0.00,40.00,3,1,5,0.00
2013-11-29,41,30,23,26,22,18,87,72,54,0.00,40.00,2,1,5,0.00
2013-11-30,37,26,21,23,18,-100,90,74,53,0.00,40.00,2,0,3,0.00
2013-12-1,38,33,25,30,27,22,90,78,57,0.00,40.00,4,1,8,0.00
2013-12-2,39,34,30,31,26,21,100,76,48,0.00,40.00,4,2,14,0.00
2013-12-3,30,17,7,30,17,6,100,97,94,0.00,40.00,2,1,8,0.00
2013-12-4,9,1,-10,7,-2,-13,96,88,71,0.00,40.00,3,1,7,0.00
2013-12-5,5,-5,-12,1,-8,-15,92,86,79,0.00,40.00,2,0,3,0.00
2013-12-6,7,-1,-10,3,-4,-13,93,86,81,0.00,40.00,5,1,8,0.00
2013-12-7,13,9,5,13,6,-100,99,94,84,0.00,40.00,4,2,16,0.00
2013-12-8,8,2,-5,6,-1,-8,92,87,80,0.00,40.00,5,1,13,0.00
2013-12-9,6,-1,-6,4,-3,-9,93,89,82,0.00,40.00,3,0,10,0.00
2013-12-10,25,14,0,23,13,-2,99,94,81,0.00,40.00,0,0,0,0.00
2013-12-11,31,15,8,23,13,7,97,92,73,0.00,40.00,0,0,0,0.00
2013-12-12,34,24,18,22,17,12,92,75,54,0.00,40.00,2,1,4,0.00
2013-12-13,27,23,19,18,16,10,88,74,50,0.00,40.00,5,1,12,0.00
2013-12-14,23,18,13,20,15,-100,100,93,74,0.00,40.00,6,1,15,0.00
2013-12-15,38,29,19,22,19,15,96,67,44,0.00,40.00,3,1,9,0.00
2013-12-16,40,30,24,22,15,4,74,55,29,0.00,40.00,3,1,11,0.00
2013-12-17,43,32,24,20,14,10,64,48,29,0.00,40.00,4,1,7,0.00
2013-12-18,45,36,31,33,20,13,104,51,35,0.00,40.00,4,2,8,0.00
2013-12-19,32,28,21,32,28,21,104,72,96,0.00,40.00,3,1,9,0.00
2013-12-20,22,16,11,22,15,10,101,96,89,0.00,40.00,3,1,7,0.00
2013-12-21,22,17,11,22,16,-100,102,96,86,0.00,40.00,4,1,9,0.00
2013-12-22,24,21,14,24,20,13,103,98,88,0.00,40.00,3,1,7,0.00
2013-12-23,32,28,23,30,27,23,102,97,90,0.00,40.00,3,1,7,0.00
2013-12-24,34,22,10,32,18,7,102,84,47,0.00,40.00,6,2,15,0.00
2013-12-25,31,16,10,15,11,7,91,80,48,0.00,40.00,2,0,5,0.00
2013-12-26,37,26,18,21,16,8,90,68,30,0.00,40.00,2,0,4,0.00
2013-12-27,42,28,22,25,21,18,94,79,43,0.00,40.00,2,0,3,0.00
2013-12-28,35,26,16,23,17,-100,101,72,37,0.00,40.00,5,1,11,0.00
2013-12-29,25,17,13,15,10,6,91,74,54,0.00,40.00,7,2,12,0.00
2013-12-30,30,22,15,22,15,7,95,72,51,0.00,40.00,4,1,7,0.00
2013-12-31,35,31,28,30,25,22,101,80,65,0.00,40.00,4,2,10,0.00
2014-1-1,30,24,17,25,19,11,95,81,68,0.00,40.00,3,1,12,0.00
2014-1-2,38,25,18,21,16,11,84,68,43,0.00,40.00,3,1,5,0.00